Weather in Soshniki

Russia / Ivanovo Oblast     57°14′00″N   42°00′13″E
temp.,
°C
wind,
m/s
gust,
m/s
humid.,
%
clouds,
%
prec.,
mm/h
press.,
hPa
HPBL,
m
22 june, tue
tue2200:00+20w2288100 0.0 102113
03:00+19sw2289100 0.0 102113
06:00+21wsw1281100 0.0 102293
09:00+26sw226011 0.0 1021472
12:00+29wsw334934 0.0 10211474
15:00+30wsw33452 0.0 10211834
18:00+29w12550 0.0 10201004
21:00+23sw11720 0.0 102011
23 june, wed
wed2300:00+21w11810 0.0 102011
03:00+20nnw118489 0.0 102111
06:00+23wnw12750 0.0 102193
09:00+27wnw225611 0.0 1021475
12:00+30wnw3347100 0.0 10211291
15:00+31w3343100 0.0 10201630
18:00+29w356060 0.0 1020290
21:00+24wnw22745 0.0 101927
24 june, thu
thu2400:00+22wnw2279100 0.0 102011
03:00+22w227998 0.0 102023
06:00+23w2481100 0.0 1020127
09:00+28w346037 0.0 1019494
12:00+31wnw454710 0.0 10191295
15:00+32wnw45438 0.0 10181502
18:00+30wnw36565 0.0 1017491
21:00+25w22645 0.0 101619
25 june, fri
fri2500:00+23wsw33780 0.0 101743
03:00+21w35780 0.0 101684
06:00+23w22760 0.0 1016106
09:00+28w35584 0.0 1016502
12:00+31w45460 0.0 10161433
15:00+31wnw56442 0.0 10151419
18:00+30nw24560 0.0 1013524
21:00+25w22732 0.0 101312
26 june, sat
sat2600:00+18w37955 0.6 1014143
03:00+18nnw22952 1.0 101338
06:00+20wnw24905 0.0 1014162
09:00+25w34655 0.0 1013527
12:00+28w335459 0.0 10131133
15:00+29w34515 0.0 10121325
18:00+28nw24615 0.0 1011859
21:00+22nnw23856 0.5 101139